STARLINK-32751 (62753 NORAD) Tracking and Keplerian Element Data

This shows tracking and keplerian element data for the satellite.

Feedback or suggestion? Click here.




ElementValue
Catalog62753
NameSTARLINK-32751
Epoch Orbit5093
Epoch Day353.13305984
Epoch Year2025
RAAN249.6452
Inclination42.999
Eccentricity0.0001511
Argument of Perigee272.9882
Mean Anonmoly87.0797
Mean Motion15.27571923
Decay Rate0.00019945
L11 62753U 25014U 25353.13305984 .00019945 00000+0 73250-3 0 9993
L22 62753 42.9990 249.6452 0001511 272.9882 87.0797 15.27571923 50933



Live tracking and technical data element details for STARLINK-32751 (NORAD 62753). STARLINK-32751 can be tracked NOW for your location showing map with azimuth and elevation plus other details from your city location.







IsCatalogInMostPopularTable: catalog: 62753, numindb: 246
Update: records affected: 1



GetName: 62753 STARLINK-32751

Hit Count: updated at: Sat, 07 Mar 2026 03:51:31 GMT